Regional Weather Roundup
Issued by NWS Cleveland, OH

Home | Current Version | Previous Version | Text Only | Print | Product List | Glossary Off
Versions: 1 2 3 4 5 6 7 8 9 10 11 12 13 14 15 16 17 18 19 20 21 22 23 24 25 26 27 28 29 30 31 32 33 34 35 36 37 38 39 40 41 42 43 44 45 46 47 48 49 50

000
ASUS41 KCLE 122100
RWRCLE
OHIO REGIONAL WEATHER ROUNDUP
NATIONAL WEATHER SERVICE WILMINGTON, OH
400 PM EST TUE DEC 12 2017

NOTE: "FAIR" INDICATES FEW OR NO CLOUDS BELOW 12,000 FEET WITH NO
SIGNIFICANT WEATHER AND/OR OBSTRUCTIONS TO VISIBILITY.

OHZ001>008-015>018-024>027-034-035-043-044-122200-
   NORTHWEST OHIO

CITY           SKY/WX    TMP DP  RH WIND       PRES   REMARKS
DEFIANCE       NOT AVBL
FINDLAY        CLOUDY    23   6  48 NW15      29.88R WCI  10
TOLEDO EXPRESS FAIR      21   5  50 NW13      29.88S WCI   9
TOLEDO EXEC    MOCLDY    22   6  50 NW18G26   29.90R WCI   7
LIMA           CLOUDY    22  10  60 NW24      29.88S WCI   5
$$

OHZ009>014-019>023-028>033-038-089-122200-
   NORTHEAST OHIO

CITY           SKY/WX    TMP DP  RH WIND       PRES   REMARKS
CLE-HOPKINS    LGT SNOW  20  11  68 NW18G29   29.85R BLWGSNOWWCI   5
CLE-LAKEFRONT  FLURRIES  21   8  57 NW28G38   29.81S WCI   3
CUY CO. ARPT   MOCLDY    19   1  45 NW17G28   29.80R WCI   4
LORAIN-ELYRIA  LGT SNOW  19   6  57 NW13      29.84R WCI   6
ASHTABULA      CLOUDY    17   2  51 NW14G24   29.77R WCI   3
AKRON-CANTON   FLURRIES  20   8  60 NW14      29.78R WCI   7
WOOSTER        LGT SNOW  18  10  73 NW17      29.82R WCI   2
MANSFIELD      FLURRIES  19   7  59 NW15G24   29.82R WCI   5
YOUNGSTOWN     FLURRIES  18   9  68 NW13G24   29.75R WCI   5
$$

OHZ042-051>053-060>062-070>072-077>081-122200-
  SOUTHWEST OHIO

CITY           SKY/WX    TMP DP  RH WIND       PRES   REMARKS
CINC-COVINGTON PTSUNNY   28  11  48 NW22G30   29.95R WCI  14
CINC-LUNKEN    PTSUNNY   28  12  51 NW15G25   29.98S WCI  16
HAMILTON       PTSUNNY   27  11  51 NW16G25   29.97S WCI  15
DAYTON         NOT AVBL
WRIGHT-PAT AFB PTSUNNY   24  14  64 W13G26    29.92R WCI  13
DAYTON GENERAL CLOUDY    24  15  68 NW15      29.92S WCI  11
WILMINGTON     CLOUDY    25  12  58 W26       29.90R WCI   9
$$

OHZ036-037-039>041-045>050-054>059-063>069-073>076-082>088-122200-
  CENTRAL AND SOUTHEAST OHIO

CITY           SKY/WX    TMP DP  RH WIND       PRES   REMARKS
COLUMBUS       CLOUDY    25   9  50 NW21      29.87R WCI  11
OSU AIRPORT    CLOUDY    24   8  50 NW20G31   29.86S WCI  10
BOLTON FIELD   CLOUDY    27   9  46 NW15G24     N/A  WCI  15
RICKENBACK AFB NOT AVBL
NEWARK         CLOUDY    24   6  46 NW18G31   29.85R WCI  10
MARION         NOT AVBL
LANCASTER      CLOUDY    25   8  48 NW15G24   29.87R WCI  13
ZANESVILLE     CLOUDY    24   4  42 W16G29    29.84R WCI  11
NEW PHILLY     CLOUDY    21   7  54 NW16G22   29.83R WCI   7
$$




USA.gov is the U.S. government's official web portal to all federal, state and local government web resources and services.